Warning: Javascript must be enabled to use all the features on this page!


Page Loading - Please Wait...

* We've detected you're using a mobile device. Find our Next Generation Station Page here.
Click to hideNews Bulletins

Streamflow Measurements for the Nation


USGS 01408167 Barnegat Bay at Route 528 bridge at Mantoloking NJ


Ocean County, New Jersey
Hydrologic Unit Code 02040301
Latitude  40°02'26", Longitude  74°03'17" NAD83
Gage datum 0 feet above NAVD88
Output formats
HTML table with channel data
HTML table without channel data
Tab-separated data with channel data
Tab-separated data without channel data
Graph of data
Reselect output format
Meas.
Number
  Date       Time Time
Datum
Measurement
Used?
  Who Measuring
Agency
Stream
flow
(ft3/s)
Gage
Height
(ft)
GH
Change
(ft)
Meas.
Duration
(hr)
Meas.
Rated
  Control Flow
Adjust.
Code
 
2172014-07-22 18:44:04EDTYesKMB/JJTUSGS3710 0.10Unspecified NONE
2162014-07-22 18:38:06EDTYesKMB/JJTUSGS3430 0.10Unspecified NONE
2152014-07-22 18:32:19EDTYesKMB/JJTUSGS3150 0.10Unspecified NONE
2142014-07-22 18:26:48EDTYesKMB/JJTUSGS3350 0.10Unspecified NONE
2132014-07-22 18:02:48EDTYesKMB/JJTUSGS3500 0.10Unspecified NONE
2122014-07-22 17:59:13EDTYesKMB/JJTUSGS3050 0.10Unspecified NONE
2112014-07-22 17:55:40EDTYesKMB/JJTUSGS2660 0.10Unspecified NONE
2102014-07-22 17:52:09EDTYesKMB/JJTUSGS2870 0.10Unspecified NONE
2092014-07-22 17:48:44EDTYesKMB/JJTUSGS2950 0.10Unspecified NONE
2082014-07-22 17:45:30EDTYesKMB/JJTUSGS2700 0.10Unspecified NONE
2072014-07-22 17:34:51EDTYesKMB/JJTUSGS2200 0.10Unspecified NONE
2062014-07-22 17:31:02EDTYesKMB/JJTUSGS2440 0.10Unspecified NONE
2052014-07-22 17:27:06EDTYesKMB/JJTUSGS2930 0.10Unspecified NONE
2042014-07-22 17:23:29EDTYesKMB/JJTUSGS2280 0.10Unspecified NONE
2032014-07-22 17:19:38EDTYesKMB/JJTUSGS2540 0.10Unspecified NONE
2022014-07-22 17:15:46EDTYesKMB/JJTUSGS3070 0.10Unspecified NONE
2012014-07-22 17:12:04EDTYesKMB/JJTUSGS2620 0.10Unspecified NONE
2002014-07-22 17:08:18EDTYesKMB/JJTUSGS2930 0.10Unspecified NONE
1992014-07-22 17:04:32EDTYesKMB/JJTUSGS2410 0.10Unspecified NONE
1982014-07-22 17:00:54EDTYesKMB/JJTUSGS2940 0.10Unspecified NONE
1972014-07-22 16:56:52EDTYesKMB/JJTUSGS2710 0.10Unspecified NONE
1962014-07-22 16:52:40EDTYesKMB/JJTUSGS2840 0.10Unspecified NONE
1952014-07-22 16:31:34EDTYesKMB/JJTUSGS4040 0.10Unspecified NONE
1942014-07-22 16:27:24EDTYesKMB/JJTUSGS4120 0.10Unspecified NONE
1932014-07-22 16:23:23EDTYesKMB/JJTUSGS4150 0.10Unspecified NONE
1922014-07-22 16:19:51EDTYesKMB/JJTUSGS5060 0.10Unspecified NONE
1912014-07-22 16:16:18EDTYesKMB/JJTUSGS4830 0.10Unspecified NONE
1902014-07-22 16:12:46EDTYesKMB/JJTUSGS4570 0.10Unspecified NONE
1892014-07-22 16:09:04EDTYesKMB/JJTUSGS4750 0.10Unspecified NONE
1882014-07-22 16:05:19EDTYesKMB/JJTUSGS4620 0.10Unspecified NONE
1872014-07-22 16:02EDTYesKMB/JJTUSGS4400 0.10Unspecified NONE
1862014-07-22 15:57:36EDTYesKMB/JJTUSGS4670 0.10Unspecified NONE
1852014-07-22 15:53:45EDTYesKMB/JJTUSGS4360 0.10Unspecified NONE
1842014-07-22 15:50:01EDTYesKMB/JJTUSGS3750 0.10Unspecified NONE
1832014-07-22 15:45:58EDTYesKMB/JJTUSGS3750 0.10Unspecified NONE
1822014-07-22 15:41:50EDTYesKMB/JJTUSGS3530 0.10Unspecified NONE
1812014-07-22 15:38:26EDTYesKMB/JJTUSGS3070 0.10Unspecified NONE
1802014-07-22 15:34:49EDTYesKMB/JJTUSGS3270 0.10Unspecified NONE
1792014-07-22 15:22:04EDTYesKMB/JJTUSGS1180 0.10Unspecified NONE
1782014-07-22 15:16:12EDTYesKMB/JJTUSGS515 0.10Unspecified NONE
1772014-07-22 15:10:04EDTYesKMB/JJTUSGS101 0.10Unspecified NONE
1762014-07-22 15:04:07EDTYesKMB/JJTUSGS-309 0.10Unspecified NONE
1752014-07-22 14:58:43EDTYesKMB/JJTUSGS-1350 0.10Unspecified NONE
1742014-07-22 14:53:22EDTYesKMB/JJTUSGS-1940 0.10Unspecified NONE
1732014-07-22 14:48:01EDTYesKMB/JJTUSGS-2110 0.10Unspecified NONE
1722014-07-22 14:42:20EDTYesKMB/JJTUSGS-2500 0.10Unspecified NONE
1712014-07-22 14:36:28EDTYesKMB/JJTUSGS-3330 0.10Unspecified NONE
1702014-07-22 14:31:12EDTYesKMB/JJTUSGS-3800 0.10Unspecified NONE
1692014-07-22 14:25:36EDTYesKMB/JJTUSGS-4540 0.10Unspecified NONE
1682014-06-26 15:15:16EDTYesKMB/JJTUSGS-4540 0.10Unspecified NONE
1672014-06-26 15:11:55EDTYesKMB/JJTUSGS-4130 0.10Unspecified NONE
1662014-06-26 15:08:34EDTYesKMB/JJTUSGS-4520 0.10Unspecified NONE
1652014-06-26 15:05EDTYesKMB/JJTUSGS-4830 0.10Unspecified NONE
1642014-06-26 15:01:24EDTYesKMB/JJTUSGS-4500 0.10Unspecified NONE
1632014-06-26 14:57:54EDTYesKMB/JJTUSGS-4300 0.10Unspecified NONE
1622014-06-26 14:54:33EDTYesKMB/JJTUSGS-4550 0.10Unspecified NONE
1612014-06-26 14:51:15EDTYesKMB/JJTUSGS-4180 0.10Unspecified NONE
1602014-06-26 14:48:04EDTYesKMB/JJTUSGS-4470 0.10Unspecified NONE
1592014-06-26 14:44:31EDTYesKMB/JJTUSGS-4360 0.10Unspecified NONE
1582014-06-26 14:40:30EDTYesKMB/JJTUSGS-4810 0.10Unspecified NONE
1572014-06-26 14:36:06EDTYesKMB/JJTUSGS-4780 0.10Unspecified NONE
1562014-06-26 14:32:08EDTYesKMB/JJTUSGS-4810 0.10Unspecified NONE
1552014-06-26 14:28:19EDTYesKMB/JJTUSGS-4640 0.10Unspecified NONE
1542014-06-26 14:24:40EDTYesKMB/JJTUSGS-4260 0.10Unspecified NONE
1532014-06-26 14:21:04EDTYesKMB/JJTUSGS-4590 0.10Unspecified NONE
1522014-06-26 14:17:16EDTYesKMB/JJTUSGS-4380 0.10Unspecified NONE
1512014-06-26 14:13:25EDTYesKMB/JJTUSGS-4400 0.10Unspecified NONE
1502014-06-26 14:09:44EDTYesKMB/JJTUSGS-4280 0.10Unspecified NONE
1492014-06-26 14:05:43EDTYesKMB/JJTUSGS-4490 0.10Unspecified NONE
1482014-06-26 14:02:06EDTYesKMB/JJTUSGS-3860 0.10Unspecified NONE
1472014-06-26 13:58:50EDTYesKMB/JJTUSGS-4220 0.10Unspecified NONE
1462014-06-26 13:55:40EDTYesKMB/JJTUSGS-4050 0.10Unspecified NONE
1452014-06-26 13:52:39EDTYesKMB/JJTUSGS-4180 0.00Unspecified NONE
1442014-06-26 13:49:20EDTYesKMB/JJTUSGS-4470 0.10Unspecified NONE
1432014-06-26 13:45:46EDTYesKMB/JJTUSGS-4280 0.10Unspecified NONE
1422014-06-26 13:42:33EDTYesKMB/JJTUSGS-4390 0.00Unspecified NONE
1412014-06-26 13:39:35EDTYesKMB/JJTUSGS-4420 0.00Unspecified NONE
1402014-06-26 13:36:24EDTYesKMB/JJTUSGS-4490 0.10Unspecified NONE
1392014-06-26 13:33:03EDTYesKMB/JJTUSGS-4510 0.10Unspecified NONE
1382014-06-26 13:29:54EDTYesKMB/JJTUSGS-4730 0.10Unspecified NONE
1372014-06-26 13:26:32EDTYesKMB/JJTUSGS-5030 0.10Unspecified NONE
1362014-06-26 13:22:54EDTYesKMB/JJTUSGS-4710 0.10Unspecified NONE
1352014-06-26 13:19:34EDTYesKMB/JJTUSGS-5220 0.10Unspecified NONE
1342014-06-26 13:16:02EDTYesKMB/JJTUSGS-5380 0.10Unspecified NONE
1332014-06-26 13:12:34EDTYesKMB/JJTUSGS-5210 0.10Unspecified NONE
1322014-06-26 13:09:18EDTYesKMB/JJTUSGS-5280 0.10Unspecified NONE
1312014-06-26 13:05:45EDTYesKMB/JJTUSGS-5100 0.10Unspecified NONE
1302014-06-26 13:01:56EDTYesKMB/JJTUSGS-5290 0.10Unspecified NONE
1292014-06-26 12:58:09EDTYesKMB/JJTUSGS-5420 0.10Unspecified NONE
1282014-06-26 12:54:19EDTYesKMB/JJTUSGS-4940 0.10Unspecified NONE
1272014-06-26 12:50:21EDTYesKMB/JJTUSGS-5280 0.10Unspecified NONE
1262014-06-26 12:46:39EDTYesKMB/JJTUSGS-5150 0.10Unspecified NONE
1252014-06-26 12:42:40EDTYesKMB/JJTUSGS-5570 0.10Unspecified NONE
1242014-06-26 12:38:26EDTYesKMB/JJTUSGS-5570 0.10Unspecified NONE
1232014-06-26 12:34:32EDTYesKMB/JJTUSGS-5950 0.10Unspecified NONE
1222014-06-26 12:30:31EDTYesKMB/JJTUSGS-5800 0.10Unspecified NONE
1212014-06-26 12:25:52EDTYesKMB/JJTUSGS-6340 0.10Unspecified NONE
1202014-06-26 12:21:30EDTYesKMB/JJTUSGS-5620 0.10Unspecified NONE
1192014-06-26 12:17:40EDTYesKMB/JJTUSGS-5650 0.10Unspecified NONE
1182014-06-26 12:13:48EDTYesKMB/JJTUSGS-5590 0.10Unspecified NONE
1172014-06-26 12:09:44EDTYesKMB/JJTUSGS-5460 0.10Unspecified NONE
1162014-06-26 12:05:12EDTYesKMB/JJTUSGS-5470 0.10UnspecifiedClearNONE
1152014-06-26 12:00:18EDTYesKMB/JJTUSGS-5560 0.10Unspecified NONE
1142013-05-14 17:24:58EDTYesafw/arvUSGS-9250-0.01 0.10Unspecified NONE
1132013-05-14 17:14:57EDTYesafw/arvUSGS-9480-0.01 Unspecified NONE
1122013-05-14 17:11:31EDTYesafw/arvUSGS-9220-0.02 0.10Unspecified NONE
1112013-05-14 17:04:20EDTYesafw/arvUSGS-10200-0.02 0.10Unspecified NONE
1102013-05-14 16:57:29EDTYesafw/arvUSGS-10300-0.01 0.10Unspecified NONE
1092013-05-14 16:47:12EDTYesafw/arvUSGS-10300-0.01 Unspecified NONE
1082013-05-14 16:43:36EDTYesafw/arvUSGS-10000-0.03 0.10Unspecified NONE
1072013-05-14 16:36:15EDTYesafw/arvUSGS-10000-0.03 0.10Unspecified NONE
1062013-05-14 16:28:48EDTYesafw/arvUSGS-9570-0.04 0.10Unspecified NONE
1052013-05-14 16:21:51EDTYesafw/arvUSGS-9410-0.06 0.10Unspecified NONE
1042013-05-14 16:15:04EDTYesafw/arvUSGS-9320-0.07 0.10Unspecified NONE
1032013-05-14 16:08:15EDTYesafw/arvUSGS-8970-0.08 0.10Unspecified NONE
1022013-05-14 16:01:04EDTYesafw/arvUSGS-8560-0.09 0.10Unspecified NONE
1012013-05-14 15:54EDTYesafw/arvUSGS-7940-0.08 0.10Unspecified NONE
1002013-05-14 15:46:14EDTYesafw/arvUSGS-7580-0.07 0.10Unspecified NONE
992013-05-14 15:18:49EDTYesafw/arvUSGS-4870-0.11 0.20Unspecified NONE
982013-05-14 15:09:28EDTYesafw/arvUSGS-3980-0.10 0.20Unspecified NONE
972013-05-14 15:00:46EDTYesafw/arvUSGS-3150-0.11 0.10Unspecified NONE
962013-05-14 14:52:43EDTYesafw/arvUSGS-2260-0.13 0.10Unspecified NONE
952013-05-14 14:44:30EDTYesafw/arvUSGS-1030-0.11 0.10Unspecified NONE
942013-05-14 14:36:36EDTYesafw/arvUSGS8.00-0.10 0.10Unspecified NONE
932013-05-14 14:31:07EDTYesafw/arvUSGS1360-0.12 0.10Unspecified NONE
922013-05-14 14:22:58EDTYesafw/arvUSGS2030-0.15 0.10Unspecified NONE
912013-05-14 14:15:40EDTYesafw/arvUSGS1820-0.14 0.10Unspecified NONE
902013-05-14 14:07:37EDTYesafw/arvUSGS2410-0.13 0.10Unspecified NONE
892013-05-14 13:58:29EDTYesafw/arvUSGS2610-0.14 0.20Unspecified NONE
882013-05-14 13:48:45EDTYesafw/arvUSGS3650-0.16 0.20Unspecified NONE
872013-05-14 13:39:26EDTYesafw/arvUSGS3850-0.17 0.10Unspecified NONE
862013-05-14 13:30:43EDTYesafw/arvUSGS4910-0.19 0.10Unspecified NONE
852013-05-14 13:22:29EDTYesafw/arvUSGS4770-0.20 0.10Unspecified NONE
842013-05-14 13:09:35EDTYesafw/arvUSGS4920-0.24 0.10Unspecified NONE
832013-05-14 13:01:39EDTYesafw/arvUSGS4880-0.26 0.10Unspecified NONE
822013-05-14 12:53:53EDTYesafw/arvUSGS5200-0.28 0.10Unspecified NONE
812013-05-14 12:44:02EDTYesafw/arvUSGS4990-0.27 0.10Unspecified NONE
802013-05-14 12:37:45EDTYesafw/arvUSGS5260-0.28 0.10Unspecified NONE
792013-05-14 12:18:57EDTYesafw/arvUSGS6380-0.33 0.10Unspecified NONE
782013-05-14 12:11:04EDTYesafw/arvUSGS5850-0.36 0.10Unspecified NONE
772012-03-21 18:51:24EDTYesafw/mnUSGS6350-0.60 0.10Unspecified NONE
762012-03-21 18:39:58EDTYesafw/mnUSGS5960-0.60 Unspecified NONE
752012-03-21 18:36:10EDTYesafw/mnUSGS5220-0.59 0.10Unspecified NONE
742012-03-21 18:28:31EDTYesafw/mnUSGS4500-0.58 0.10Unspecified NONE
732012-03-21 18:21:10EDTYesafw/mnUSGS3880-0.58 0.10Unspecified NONE
722012-03-21 18:13:47EDTYesafw/mnUSGS2870-0.57 0.10Unspecified NONE
712012-03-21 18:06:19EDTYesafw/mnUSGS1770-0.57 0.10Unspecified NONE
702012-03-21 17:58:51EDTYesafw/mnUSGS854-0.57 0.10Unspecified NONE
692012-03-21 17:51:21EDTYesafw/mnUSGS14.0-0.57 0.10Unspecified NONE
682012-03-21 17:43:52EDTYesafw/mnUSGS-718-0.56 0.10Unspecified NONE
672012-03-21 17:36:25EDTYesafw/mnUSGS-1340-0.54 0.10Unspecified NONE
662012-03-21 17:28:49EDTYesafw/mnUSGS-2210-0.53 0.10Unspecified NONE
652012-03-21 17:21:18EDTYesafw/mnUSGS-2610-0.53 0.10Unspecified NONE
642012-03-21 17:08:47EDTYesafw/mnUSGS-3130-0.51 0.10Unspecified NONE
632012-03-21 17:01:07EDTYesafw/mnUSGS-3630-0.51 0.10Unspecified NONE
622012-03-21 16:53EDTYesafw/mnUSGS-3940-0.50 0.10Unspecified NONE
612012-03-21 16:45:28EDTYesafw/mnUSGS-3970-0.50 0.10Unspecified NONE
602012-03-21 16:37:48EDTYesafw/mnUSGS-4280-0.49 0.10Unspecified NONE
592012-03-21 16:30:14EDTYesafw/mnUSGS-4380-0.48 0.10Unspecified NONE
582012-03-21 16:22:07EDTYesafw/mnUSGS-4450-0.46 0.10Unspecified NONE
572012-03-21 16:14:33EDTYesafw/mnUSGS-4610-0.42 0.10Unspecified NONE
562012-03-21 16:04:01EDTYesafw/mnUSGS-4740-0.40 0.10Unspecified NONE
552012-03-21 15:55:41EDTYesafw/mnUSGS-5150-0.39 0.10Unspecified NONE
542012-03-21 15:44:31EDTYesafw/mnUSGS-5200-0.37 0.10Unspecified NONE
532012-03-21 15:37:16EDTYesafw/mnUSGS-4280-0.36 0.10Unspecified NONE
522012-03-21 15:29:25EDTYesafw/mnUSGS-5120 0.10Unspecified NONE
512012-03-21 15:21:03EDTYesafw/mnUSGS-5170-0.31 0.10Unspecified NONE
502012-03-21 15:12:54EDTYesafw/mnUSGS-5000-0.29 0.10Unspecified NONE
492012-03-21 15:05:04EDTYesafw/mnUSGS-5070-0.28 0.10Unspecified NONE
482012-03-21 14:57:12EDTYesafw/mnUSGS-4780-0.27 0.10Unspecified NONE
472012-03-21 14:49:31EDTYesafw/mnUSGS-4630-0.25 0.10Unspecified NONE
462012-03-21 14:34:19EDTYesafw/mnUSGS-4390-0.24 0.10Unspecified NONE
452012-03-21 14:26:50EDTYesafw/mnUSGS-3850-0.21 0.10Unspecified NONE
442012-03-21 14:19:23EDTYesafw/mnUSGS-4300-0.18 0.10Unspecified NONE
432012-03-21 14:12:13EDTYesafw/mnUSGS-4240-0.17 0.10Unspecified NONE
422012-03-21 14:05:09EDTYesafw/mnUSGS4490-0.15 0.10Unspecified NONE
412012-03-21 13:58:01EDTYesafw/mnUSGS-4640-0.14 0.10Unspecified NONE
402012-03-21 13:50:55EDTYesafw/mnUSGS-4810 0.10Unspecified NONE
392012-03-21 13:32:02EDTYesafw/mnUSGS-5220-0.05 0.10Unspecified NONE
382012-03-21 13:24:50EDTYesafw/mnUSGS-5750-0.04 0.10Unspecified NONE
372012-03-21 13:03:49EDTYesafw/mnUSGS-6520-0.02 0.10Unspecified NONE
362012-03-21 12:56:23EDTYesafw/mnUSGS-6810-0.01 0.10Unspecified NONE
352012-03-21 12:48:54EDTYesafwUSGS-68600.01 0.10Unspecified NONE
342012-03-21 12:39:29EDTYesafw/mnUSGS-73300.04 0.10Unspecified NONE
332012-03-21 12:33:25EDTYesafw/mnUSGS-73500.05 0.10Unspecified NONE
322012-03-21 12:25:31EDTYesafw/mnUSGS-77200.06 0.10Unspecified NONE
312012-03-21 12:17:18EDTYesafw/mnUSGS-80300.06 0.10Unspecified NONE
302012-03-21 12:09:28EDTYesafw/mnUSGS-79700.06 0.10Unspecified NONE
292012-03-21 12:01:42EDTYesafw/mnUSGS-79500.06 0.10Unspecified NONE
282012-03-21 11:53:58EDTYesafw/mnUSGS-77200.06 0.10Unspecified NONE
272012-03-21 11:26:24EDTYesafw/mnUSGS-58500.04 0.10Unspecified NONE
262012-03-21 11:16:59EDTYesafw/mnUSGS-46600.03 0.10Unspecified NONE
252012-03-21 10:57:45EDTYesafw/mnUSGS-22900.01 0.10Unspecified NONE
242012-03-21 10:49:58EDTYesafw/mnUSGS-10700.02 0.10Unspecified NONE
232012-03-21 10:40:41EDTYesafw/mnUSGS55.00.01 0.10Unspecified NONE
222012-03-21 10:31:19EDTYesafw/mnUSGS11600.01 0.10Unspecified NONE
212012-03-21 10:21:37EDTYesafw/mnUSGS1880-0.02 0.20Unspecified NONE
202012-03-21 10:11:23EDTYesafw/mnUSGS2710-0.04 0.10Unspecified NONE
192012-03-21 10:01:54EDTYesafw/mnUSGS3150-0.05 0.10Unspecified NONE
182012-03-21 09:52:40EDTYesafw/mnUSGS3650-0.06 0.10Unspecified NONE
172012-03-21 09:38:29EDTYesafw/mnUSGS4120-0.07 0.10Unspecified NONE
162012-03-21 09:29:04EDTYesafw/mnUSGS4410-0.09 0.10Unspecified NONE
152012-03-21 09:19:40EDTYesafw/mnUSGS4480-0.13 0.10Unspecified NONE
142012-03-21 09:09:51EDTYesafw/mnUSGS4570-0.15 0.10Unspecified NONE
132012-03-21 08:59:15EDTYesafw/mnUSGS5080-0.16 0.20Unspecified NONE
122012-03-21 08:49:39EDTYesafw/mnUSGS5340-0.18 0.10Unspecified NONE
112012-03-21 08:41:14EDTYesafw/mnUSGS5400-0.21 0.10Unspecified NONE
102012-03-21 08:32:27EDTYesafw/mnUSGS5500-0.26 0.10Unspecified NONE
92012-03-21 08:23:25EDTYesafw/mnUSGS5680-0.27 0.10Unspecified NONE
82012-03-21 08:18:34EDTYesafw/mnUSGS5900-0.27 0.10Unspecified NONE
72012-03-21 08:01:44EDTYesafw/mnUSGS5860-0.30 Unspecified NONE
62012-03-21 07:57:06EDTYesafw/mnUSGS6020-0.33 0.10Unspecified NONE
52012-03-21 07:36:06EDTYesafw/mnUSGS6400-0.39 0.10Unspecified NONE
42012-03-21 07:27:24EDTYesafw/mnUSGS6540-0.41 0.10Unspecified NONE
32012-03-21 07:17:51EDTYesafw/mnUSGS7010-0.44 0.10Unspecified NONE
22012-03-21 07:07:13EDTYesafw/mnUSGS7070-0.49 0.20Unspecified NONE
12012-03-21 06:56:19EDTYesafw/mnUSGS7470-0.50 0.10Unspecified NONE